Regional Weather Roundup
Issued by NWS

Home | Current Version | Previous Version | Text Only | Print | Product List | Glossary On
Versions: 1 2 3 4 5 6 7 8 9 10 11 12 13 14 15 16 17 18 19 20 21 22 23 24 25 26 27 28 29 30 31 32 33 34 35 36 37 38 39 40 41 42 43 44 45 46 47 48 49 50
000
ASUS44 KJAN 310103
RWRMS

MISSISSIPPI HOURLY WEATHER ROUNDUP
NATIONAL WEATHER SERVICE JACKSON MS
800 PM CDT THU JUL 30 2015

NOTE: "FAIR: INDICATES FEW OR NO CLOUDS BELOW 12,000 FEET WITH NO
SIGNIFICANT WEATHER AND/OR OBSTRUCTIONS TO VISIBILITY.

MSZ001>002-007>008-010>013-018>021-025>028-034>036-310200-
NORTHWEST MISSISSIPPI

CITY           SKY/WX    TMP DP  RH WIND       PRES   REMARKS
CLARKSDALE     FAIR      81  68  65 N6        30.06R
CLEVELAND      FAIR      80  69  69 N10       30.03R
GREENWOOD      CLEAR     84  68  58 N8        30.01R
GREENVILLE     CLEAR     82  66  58 N7        30.03R
OXFORD         FAIR      79  63  57 N5        30.07R
TUNICA         CLEAR     79  66  65 N7        30.06S
$$

MSZ003>006-009-014>017-022>024-029>033-037>039-310200-
NORTHEAST MISSISSIPPI

CITY           SKY/WX    TMP DP  RH WIND       PRES   REMARKS
COLUMBUS AFB   NOT AVBL
CORINTH        FAIR      79  63  57 N5        30.04S
GOLDN TRIANGLE CLEAR     84  66  54 N9        29.99R
STARKVILLE     FAIR      82  70  65 N3        30.01R
TUPELO         CLEAR     79  63  57 NE9       30.02R
$$

MSZ040-058-310200-
CENTRAL MISSISSIPPI

CITY           SKY/WX    TMP DP  RH WIND       PRES   REMARKS
JACKSON INTL   MOCLDY    89  75  63 N9        29.98R HX  99
JACKSON HAWKNS MOCLDY    89  75  63 MISG      29.99R HX  99
MERIDIAN KEY   MOCLDY    86  76  71 N7        29.96R HX  96
MERIDIAN NAS   PTCLDY    87  75  67 NW5       29.97R HX  96
VICKSBURG      MOCLDY    87  77  72 N5        29.99R HX  99
$$

MSZ059>079-310200-
SOUTH MISSISSIPPI

CITY           SKY/WX    TMP DP  RH WIND       PRES   REMARKS
BROOKHAVEN       N/A     73  73 100 W5        30.01S
HATTIESBURG    RAIN      78  73  84 W7        29.99F
MCCOMB         CLOUDY    75  73  93 NW7       29.99F
NATCHEZ        CLOUDY    79  73  83 SW3       30.01F
PINE BELT      CLOUDY    75  72  88 W5        29.99F
$$

MSZ080>082-310200-
COASTAL MISSISSIPPI

CITY           SKY/WX    TMP DP  RH WIND       PRES   REMARKS
BAY ST LOUIS   PTCLDY    75  70  83 VRB5      29.96R
BILOXI         TSTM      79  75  89 N3        29.97R
PASCAGOULA     CLOUDY    75  72  90 N9G21     29.94F
GULFPORT       CLOUDY    79  74  84 NE8       29.96R
$$



USA.gov is the U.S. government's official web portal to all federal, state and local government web resources and services.